Regional Weather Roundup
Issued by NWS

Home | Current Version | Previous Version | Graphics & Text | Print | Product List | Glossary On
Versions: 1 2 3 4 5 6 7 8 9 10 11 12 13 14 15 16 17 18 19 20 21 22 23 24 25 26 27 28 29 30 31 32 33 34 35 36 37 38 39 40 41 42 43 44 45 46 47 48 49 50
000
ASUS43 KMKX 280421
RWRWI

WISCONSIN REGIONAL WEATHER ROUNDUP
NATIONAL WEATHER SERVICE MILWAUKEE/SULLIVAN WI
1100 PM CDT MON JUL 27 2015

NOTE: "FAIR" INDICATES FEW OR NO CLOUDS BELOW 12,000 FEET WITH NO
SIGNIFICANT WEATHER AND/OR OBSTRUCTIONS TO VISIBILITY.

WIZ001-002-006>008-014>016-023>028-280500-
NORTHWEST WISCONSIN

CITY           SKY/WX    TMP DP  RH WIND       PRES   REMARKS
SUPERIOR ARPT  CLEAR     68  67  97 CALM      29.94S
ASHLAND        CLEAR     63  62  97 CALM      29.97S
HAYWARD        CLEAR     74  63  68 SE6       29.98S
SIREN          CLEAR     74  67  76 SE5       29.94S
CUMBERLAND     CLEAR     72  64  78 SE6       29.96F
RICE LAKE      CLEAR     73  66  78 E5        29.98S
CHETEK         CLEAR     74  69  84 CALM      29.96F
LADYSMITH      PTCLDY    72  65  79 E7        30.01S
EAU CLAIRE     CLEAR     77  68  73 SE7       29.95S
MENOMONIE      CLEAR     73  70  89 E5        29.95F
NEW RICHMOND   CLEAR     73  69  88 SE6       29.95R
OSCEOLA        CLEAR     76  69  80 SE7       29.96S
$$

WIZ003>005-009-010-017-018-280500-
NORTH CENTRAL WISCONSIN

CITY           SKY/WX    TMP DP  RH WIND       PRES   REMARKS
MANITOWISH WTR CLEAR     64  63  99 CALM      30.03S
ARBOR VITAE    CLEAR     71  64  79 SE3       30.04S
WOODRUFF       CLEAR     71  64  79 SE3       30.04S
RHINELANDER    CLEAR     70  61  73 SE3       30.05F
EAGLE RIVER    CLEAR     68  59  73 CALM      30.04S
LAND O LAKES   CLEAR     65  60  84 CALM      30.05S
PHILLIPS       CLEAR     70  64  82 SE3       30.02S
TOMAHAWK       CLEAR     67  62  84 CALM      30.04S
MEDFORD        CLEAR     69  63  81 SE5       30.02S
MERRILL        NOT AVBL
$$

WIZ029-030-035-036-043>047-280500-
CENTRAL WISCONSIN

CITY           SKY/WX    TMP DP  RH WIND       PRES   REMARKS
WAUSAU         CLEAR     72  65  78 E3        30.01S
MOSINEE        CLEAR     68  63  83 SE3       30.04S
MARSHFIELD     CLEAR     72  62  71 SE6       30.01S
STEVENS POINT  CLEAR     66  63  89 CALM      30.02F
WAUPACA        CLEAR     69  67  94 CALM      30.03S
WAUTOMA        CLEAR     68  65  90 CALM      30.02S
WISC RAPIDS    CLEAR     74  61  63 SE6       30.02S
CAMP DOUGLAS   PTCLDY    70  70 100 CALM      29.99S
$$

WIZ011>013-019>022-031-037>040-048>050-280500-
NORTHEAST WISCONSIN

CITY           SKY/WX    TMP DP  RH WIND       PRES   REMARKS
ANTIGO         CLEAR     64  61  89 SE5       30.06S
SHAWANO        CLEAR     74  64  73 CALM      30.03S
OCONTO         CLEAR     64  64 100 CALM      30.02R
STURGEON BAY   CLEAR     68  59  73 S3        30.05R
GREEN BAY      CLEAR     65  62  90 CALM      30.02R
MANITOWOC      PTCLDY    66  63  90 MISG      30.03R
APPLETON       MOCLDY    73  61  64 VRB3      30.04R
CLINTONVILLE   CLEAR     68  63  83 CALM      30.02S
OSHKOSH        CLEAR     68  62  81 S3        30.02R
$$

WIZ032>034-041-042-053>061-280500-
SOUTHWEST WISCONSIN

CITY           SKY/WX    TMP DP  RH WIND       PRES   REMARKS
LA CROSSE      CLEAR     76  70  82 E7        29.95S
SPARTA         CLEAR     71  67  89 E3        29.99S
VIROQUA        CLEAR     70  70 100 SE5       30.01R
BOSCOBEL       MOCLDY    72  70  93 CALM      29.98S
PRAIRIE DU CHI MOCLDY    75  69  80 E6        29.95F
PLATTEVILLE    MOCLDY    74  71  92 E7        29.99F
$$

WIZ056-057-062-063-064-067-068-280500-
SOUTH CENTRAL WISCONSIN

CITY           SKY/WX    TMP DP  RH WIND       PRES   REMARKS
REEDSBURG      PTCLDY    71  66  87 CALM      30.00R
BARABOO/DELLS  PTCLDY    73  62  69 SE6       30.01S
LONE ROCK      MOCLDY    72  66  81 E6        30.00R
MINERAL POINT  MOCLDY    75  66  73 SE6       30.01F
MADISON        PTCLDY    75  64  68 SE8       30.01R
MIDDLETON      PTCLDY    74  62  65 SE3       30.02S
WATERTOWN      CLEAR     66  64  93 CALM      30.02R
MONROE         MOCLDY    72  63  73 E7        30.01S
JANESVILLE     MOCLDY    70  64  83 CALM      30.01S
$$

WIZ051-052-058>065-066-070>072-280500-
SOUTHEAST WISCONSIN

CITY           SKY/WX    TMP DP  RH WIND       PRES   REMARKS
MILWAUKEE      MOCLDY    72  66  81 SE3       30.03R
WAUKESHA       PTCLDY    66  59  77 CALM      30.04R
MILWAUKEE/TIMM CLEAR     70  61  73 CALM      30.04R
RACINE         PTCLDY    71  66  84 E6        30.04S
BURLINGTON     PTCLDY    64  62  95 CALM      30.03S
KENOSHA        MOCLDY    68  65  90 E6        30.03R
FOND DU LAC    CLEAR     68  62  81 S3        30.02S
SHEBOYGAN      CLEAR     64  61  90 CALM      30.03R
WEST BEND      CLEAR     63  61  94 CALM      30.03S
JUNEAU           N/A     68  63  84 CALM      30.04S
$$

LSZ147-162-280500-
LAKE SUPERIOR

STATION/POSITION TIME  TEMP    WIND        PRES    WAVE
                       AIR SEA DIR/SP/G            HT/PER
                 (UTC) (F)     (DEG/KT/KT) (MB)    (FT/S)
W MID LAKE BUOY  0350   65 62  110/  6/  6 1014.2F   0
DEVILS ISLAND    0400   73     150/  7/  8 1013.9F
PORT WING        0300   76     150/  4/  8 1013.9S
SAXON HARBOR     0300   70                 1014.2R
$$

LMZ867-665-643>646-280500-
LAKE MICHIGAN

STATION/POSITION TIME  TEMP    WIND        PRES    WAVE
                       AIR SEA DIR/SP/G            HT/PER
                 (UTC) (F)     (DEG/KT/KT) (MB)    (FT/S)
CHAMBERS ISLAND  0300   70      CALM  /  2 1015.9S
S GREEN BAY BUOY 0330   78 76  180/  8/ 10 1017.6R
N MID LAKE BUOY  0350   71 69  150/  4/  6 1016.4R   0
NORTHPORT PIER   0300   72     190/  3/  6 1016.3R
SISTER BAY       0314   74     170/  4/  5   N/A
ALGOMA LAKESHORE 0327             CALM       N/A
KEWAUNEE LAKESHO 0400   67     280/  2/  2 1016.1R
SHEBOYGAN LAKESH 0400   72     130/  5/  6 1016.8R
PORT WASHINGTON  0300   73      CALM  /  2 1016.9R
ATWATER BUOY     0400   72     190/  2/  2 1018.1R
MILWAUKEE LAKESH 0400   72     140/  2/  3   N/A
KENOSHA   LAKESH 0400   73      90/  9/ 11 1016.3S
$$

TC  - TEMPERATURE IN CELSIUS
VSB - VISIBILITY IN STATUTE MILES
WCI - WIND CHILL INDEX
HX  - HEAT INDEX




USA.gov is the U.S. government's official web portal to all federal, state and local government web resources and services.